Tracking 35331 objects as of 16-Sep-2026
HD Live streaming from Space Station
objects crossing your sky now

COSMOS 2227

Track COSMOS 2227 now!
10-day predictions
COSMOS 2227 is classified as:


NORAD ID: 22284
Int'l Code: 1992-093A
Launch date: December 25, 1992
Source: Commonwealth of Independent States (former USSR) (CIS)
Launch site: TYURATAM MISSILE AND SPACE COMPLEX (TTMTR)
Your satellite tracking list
Your tracking list is empty




NASA's NSSDC Master Catalog

Two Line Element Set (TLE):
1 22284U 92093A   26259.21102732  .00000068  00000-0  60780-4 0  9992
2 22284  70.9827 352.1294 0016325 105.5547 254.7378 14.13795930739695
Source of the keplerian elements: AFSPC